Flag for U.S.A. Weather past 2 weeks in Metairie, Louisiana, U.S.A.

Now
70 °F

Passing clouds.


Feels Like: 67 °F
Forecast: 72 / 82 °F
Wind: 3 mph from South

Location: New Orleans International Airport

Current Time: Apr 2, 2015 at 3:27:31 AM

Latest Report: Apr 2, 2015 at 2:53 AM


Visibility: 10 mi

Pressure: 30.05 "Hg

Humidity: 90%

Dew point: 67 °F

Location of MetairieLocation

Historic Weather in Metairie — Graph

°F

Metairie temperature yesterday

Maximum temperature yesterday: 80 °F (at 2:53 PM)
Minimum temperature yesterday: 64 °F (at 3:53 AM)
Average temperature yesterday: 72 °F

Past Weeks' High & Low Weather Summary

 TemperatureHumidityPressure
High82 °F (Mar 20, 3:53 PM)96% (Mar 25, 2:53 AM)30.31 "Hg (Mar 25, 2:53 AM)
Low50 °F (Mar 28, 6:53 AM)31% (Mar 27, 3:53 PM)29.82 "Hg (Mar 26, 4:03 PM)
Average69 °F73%30.06 "Hg
* Reported Mar 18 1:53 AM — Apr 2 1:53 AM, Metairie, Weather by CustomWeather, © 2015

Note: Actual official high and low records may vary slightly from our data, if they occured in-between our weather recording intervals... More about our weather records

Advertising

Metairie weather history for previous 24 hours

 ConditionsComfort  
Time TempWeatherWind HumidityBarometerVisibility
1:53 AM
Thu, Apr 2
71 °FPassing clouds.3 mph87%30.06 "Hg10 mi
12:53 AM69 °FPartly cloudy.3 mph90%30.05 "Hg10 mi
11:53 PM
Wed, Apr 1
71 °FClear.6 mph84%30.06 "Hg10 mi
10:53 PM72 °FPassing clouds.6 mph81%30.06 "Hg10 mi
9:53 PM72 °FPassing clouds.8 mph81%30.06 "Hg10 mi
8:53 PM73 °FMostly cloudy.8 mph79%30.04 "Hg10 mi
7:53 PM74 °FOvercast.9 mph71%30.04 "Hg10 mi
6:53 PM75 °FMore clouds than sun.10 mph66%30.03 "Hg10 mi
5:53 PM77 °FOvercast.13 mph58%30.03 "Hg10 mi
4:53 PM77 °FOvercast.8 mph64%30.03 "Hg10 mi
3:53 PM79 °FCloudy.15 mph56%30.04 "Hg10 mi
2:53 PM80 °FBroken clouds.10 mph56%30.05 "Hg10 mi
1:53 PM79 °FBroken clouds.12 mph54%30.06 "Hg10 mi
12:53 PM78 °FPartly sunny.6 mph52%30.09 "Hg10 mi
11:53 AM76 °FBroken clouds.10 mph58%30.11 "Hg10 mi
10:53 AM77 °FScattered clouds.9 mph58%30.12 "Hg10 mi
9:53 AM75 °FScattered clouds.3 mph69%30.11 "Hg10 mi
8:53 AM71 °FScattered clouds.3 mph84%30.09 "Hg10 mi
7:53 AM67 °FFog.No wind90%30.07 "Hg6 mi
6:53 AM65 °FPassing clouds.5 mph91%30.05 "Hg8 mi
5:53 AM64 °FPassing clouds.5 mph90%30.04 "Hg7 mi
4:53 AM65 °FPassing clouds.3 mph91%30.03 "Hg7 mi
3:53 AM64 °FPassing clouds.3 mph90%30.03 "Hg8 mi
Weather by CustomWeather, © 2015

See weather overviewHow to use our weather pages